This demonstration page uses our WeatherBlox Daily Observations layout. Learn more.

Left ArrowRight Arrow

39.51506, -84.39828

Hourly Observations for August 2, 2016

Temp ( °F °C ) Dew Point ( °F °C ) Humidity (%) Winds ( mph kmh ) Pressure ( in mb ) Visibility ( mi km ) Precip ( " mm )
12:15 am 00:15 Hazy 71 21.6 65 18.5 83 83 N N/A 30.06 1018 5 8 N/A
12:35 am 00:35 Hazy 69 20.8 64 17.7 83 83 N N/A 30.06 1018 5 8 N/A
12:55 am 00:55 Hazy 69 20.8 64 17.7 83 83 N N/A 30.06 1018 4 6 N/A
1:15 am 01:15 Hazy 69 20.8 64 18 84 84 N N/A 30.06 1018 4 6 N/A
1:35 am 01:35 Hazy 69 20.8 65 18.1 85 85 N 3 6 30.06 1018 3 4 N/A
1:55 am 01:55 Hazy 69 20.8 65 18.1 85 85 N 3 6 30.06 1018 4 6 N/A
2:15 am 02:15 Hazy 69 20.8 64 18 84 84 N N/A 30.06 1018 5 8 N/A
2:35 am 02:35 Hazy 69 20.8 64 18 84 84 N N/A 30.06 1018 4 6 N/A
2:55 am 02:55 Hazy 69 20.8 64 18 84 84 N N/A 30.06 1018 4 6 N/A
3:15 am 03:15 Hazy 69 20.8 65 18.1 85 85 N N/A 30.06 1018 3 5 N/A
3:35 am 03:35 Hazy 69 20.8 65 18.1 85 85 N N/A 30.06 1018 3 5 N/A
3:55 am 03:55 Hazy 69 20.8 65 18.1 85 85 N N/A 30.06 1018 3 5 N/A
4:15 am 04:15 Mostly Cloudy with Haze 69 20.8 65 18.1 85 85 N N/A 30.03 1017 1 2 N/A
4:35 am 04:35 Hazy 69 20.8 65 18.1 85 85 N N/A 30.03 1017 3 4 N/A
4:55 am 04:55 Mostly Cloudy with Haze 69 20.8 65 18.2 85 85 N N/A 30.03 1017 1 1 N/A
5:15 am 05:15 Mostly Cloudy with Haze 69 20.8 65 18.2 85 85 N N/A 30.03 1017 1 2 N/A
5:35 am 05:35 Hazy 67 19.5 62 16.8 84 84 N N/A 30.03 1017 3 4 N/A
5:55 am 05:55 Hazy 67 19.5 62 16.8 84 84 NNW 3 6 30.03 1017 3 5 N/A
6:15 am 06:15 Mostly Cloudy with Mist and Fog 69 20.8 65 18.2 85 85 N 3 6 30.03 1017 3 4 N/A
6:35 am 06:35 Cloudy with Haze 69 20.8 65 18.5 87 87 N N/A 30.03 1017 0 0 N/A
6:55 am 06:55 Cloudy with Haze 69 20.8 65 18.3 86 86 N N/A 30.03 1017 5 8 N/A
7:15 am 07:15 Cloudy with Haze 69 20.8 65 18.5 87 87 N N/A 30.03 1017 5 8 N/A
7:35 am 07:35 Cloudy with Haze 69 20.8 65 18.3 86 86 N N/A 30.03 1017 5 8 N/A
7:55 am 07:55 Cloudy with Haze 69 20.8 65 18.3 86 86 N N/A 30.03 1017 5 8 N/A
8:15 am 08:15 Cloudy with Haze 69 20.8 65 18.5 87 87 N N/A 30.06 1018 2 3 N/A
8:35 am 08:35 Cloudy with Fog 70 21 66 18.7 87 87 N N/A 30.06 1018 5 8 N/A
8:55 am 08:55 Cloudy with Haze 71 21.6 66 19.1 86 86 N N/A 30.06 1018 5 8 N/A
9:15 am 09:15 Cloudy with Fog 71 21.7 67 19.3 86 86 N N/A 30.06 1018 0 0 N/A
9:35 am 09:35 Cloudy with Mist and Fog 73 22.8 69 20.5 87 87 N N/A 30.06 1018 1 1 N/A
9:55 am 09:55 Hazy 74 23.6 70 21.2 86 86 N N/A 30.06 1018 3 4 N/A
10:15 am 10:15 Hazy 74 23.6 70 21.1 86 86 NNW 3 6 30.06 1018 5 8 N/A
10:35 am 10:35 Sunny 77 25.1 71 21.6 81 81 N N/A 30.06 1018 10 16 N/A
10:55 am 10:55 Sunny 80 26.4 70 20.9 72 72 N N/A 30.06 1018 10 16 N/A
11:15 am 11:15 Sunny 81 27.2 67 19.7 64 64 N N/A 30.06 1018 10 16 N/A
11:35 am 11:35 Sunny 82 28 68 20 62 62 N N/A 30.06 1018 10 16 N/A
11:55 am 11:55 Sunny 83 28.6 66 19.1 56 56 NNW 3 6 30.06 1018 10 16 N/A
12:15 pm 12:15 Sunny 84 29 65 18.4 53 53 N 3 6 30.03 1017 10 16 N/A
12:35 pm 12:35 Partly Cloudy 85 29.2 65 18.3 52 52 E 5 7 30.03 1017 10 16 N/A
12:55 pm 12:55 Mostly Cloudy 87 30.8 67 19.2 50 50 NNE 6 9 30.03 1017 10 16 N/A
1:15 pm 13:15 Cloudy 85 29.3 63 17.2 48 48 NE 3 6 30.03 1017 10 16 N/A
1:35 pm 13:35 Partly Cloudy 86 29.9 64 17.6 48 48 NE 3 6 30.03 1017 10 16 N/A
1:55 pm 13:55 Sunny 90 32.1 63 17.1 41 41 N N/A 30.03 1017 10 16 N/A
2:15 pm 14:15 Mostly Cloudy 90 32.1 64 17.7 42 42 N N/A 30.03 1017 10 16 N/A
2:35 pm 14:35 Cloudy 88 31.1 64 17.5 44 44 ENE 3 6 30.03 1017 10 16 N/A
2:55 pm 14:55 Mostly Cloudy 90 32.1 61 16 38 38 ESE 5 7 30.03 1017 10 16 N/A
3:15 pm 15:15 Mostly Cloudy 90 32.1 62 16.6 39 39 N 3 6 30.00 1016 10 16 N/A
3:35 pm 15:35 Partly Cloudy 90 32.1 61 15.9 38 38 N N/A 30.00 1016 10 16 N/A
3:55 pm 15:55 Sunny 90 32.1 59 15 36 36 N N/A 30.00 1016 10 16 N/A
4:15 pm 16:15 Partly Cloudy 90 32.1 59 15 36 36 E 6 9 30.00 1016 10 16 N/A
4:35 pm 16:35 Mostly Cloudy 90 32.1 60 15.5 37 37 N N/A 30.00 1016 10 16 N/A
4:55 pm 16:55 Mostly Cloudy 90 32.1 64 17.7 42 42 NW 5 7 30.00 1016 10 16 N/A
5:15 pm 17:15 Mostly Cloudy 88 30.9 65 18.3 47 47 W 10 17 30.00 1016 10 16 N/A
5:35 pm 17:35 Mostly Cloudy 82 28 64 17.6 53 53 WNW 6 9 30.00 1016 10 16 N/A
5:55 pm 17:55 Mostly Cloudy 82 28 64 18 55 55 WNW 5 7 30.00 1016 10 16 N/A
6:15 pm 18:15 Cloudy 82 28 64 17.8 54 54 WNW 6 9 30.00 1016 10 16 N/A
6:35 pm 18:35 Cloudy 83 28.3 64 18 54 54 NW 3 6 29.97 1015 10 16 N/A
6:55 pm 18:55 Mostly Cloudy 87 30.7 65 18.5 48 48 N N/A 29.97 1015 10 16 N/A
7:15 pm 19:15 Partly Cloudy 87 30.7 66 18.9 49 49 N N/A 29.97 1015 10 16 N/A
7:35 pm 19:35 Partly Cloudy 87 30.7 66 19 50 50 N N/A 29.97 1015 10 16 N/A
7:55 pm 19:55 Partly Cloudy 87 30.7 65 18.4 48 48 N N/A 29.97 1015 10 16 N/A
8:15 pm 20:15 Mostly Cloudy 87 30.7 66 19 50 50 N N/A 29.97 1015 10 16 N/A
8:35 pm 20:35 Mostly Cloudy 85 29.3 65 18.4 52 52 N N/A 29.97 1015 10 16 N/A
8:55 pm 20:55 Mostly Cloudy 80 26.5 70 21 72 72 N N/A 30.00 1016 10 16 N/A
9:15 pm 21:15 Mostly Cloudy 80 26.5 71 21.5 74 74 N N/A 30.00 1016 10 16 N/A
9:35 pm 21:35 Mostly Cloudy 80 26.5 71 21.7 75 75 N N/A 30.00 1016 10 16 N/A
9:55 pm 21:55 Mostly Cloudy 79 25.9 70 21 74 74 N N/A 30.03 1017 10 16 N/A
10:15 pm 22:15 Mostly Cloudy 77 25.1 70 21 78 78 N N/A 30.03 1017 10 16 N/A
10:35 pm 22:35 Cloudy 78 25.8 69 20.7 74 74 N N/A 30.03 1017 10 16 N/A
10:55 pm 22:55 Cloudy 77 25.2 69 20.7 76 76 N N/A 30.03 1017 10 16 N/A
11:15 pm 23:15 Mostly Cloudy 77 25.1 69 20.6 76 76 N N/A 30.03 1017 10 16 N/A
11:35 pm 23:35 Partly Cloudy 76 24.3 69 20.4 79 79 N N/A 30.03 1017 10 16 N/A
11:55 pm 23:55 Mostly Cloudy 74 23.6 68 19.9 80 80 N N/A 30.03 1017 10 16 N/A

Powered by AerisWeather